DW1850 Weather Reports


Display with metric or nautical units.
time (UTC)temp
F
wind
direction
speed
MPH
gust
MPH
rain 1hr
in
rain 24hr
in
rain mn
in
humidity
%
barometer
mb
20260903162959 90 196 9.0 14.0 0.00 0.00 0.00 61 1010.5
20260903155959 88 181 4.0 13.0 0.00 0.00 0.00 69 1010.3
20260903152958 86 182 6.0 16.0 0.00 0.00 0.00 72 1010.4
20260903145957 85 212 3.0 15.0 0.00 0.00 0.00 76 1010.1
20260903142956 84 219 4.0 14.0 0.00 0.00 0.00 79 1010.3
20260903135955 82 195 4.0 15.0 0.00 0.00 0.00 83 1010.4
20260903132955 81 190 6.0 16.0 0.00 0.00 0.00 85 1010.4
20260903125954 80 179 9.0 12.0 0.00 0.00 0.00 88 1010.4
20260903122954 80 176 6.0 13.0 0.00 0.00 0.00 89 1010.3
20260903115953 79 175 4.0 9.0 0.00 0.00 0.00 89 1010.1
20260903112952 80 176 7.0 10.0 0.00 0.00 0.00 89 1010.3
20260903105951 80 171 8.0 14.0 0.00 0.00 0.00 89 1010.0
20260903102950 80 172 7.0 13.0 0.00 0.00 0.00 89 1010.0
20260903092948 80 174 0.0 12.0 0.00 0.00 0.00 87 1010.1
20260903082947 81 166 8.0 13.0 0.00 0.00 0.00 85 1010.4
20260903075946 81 178 0.0 14.0 0.00 0.00 0.00 83 1010.3
20260903072945 81 159 9.0 14.0 0.00 0.00 0.00 81 1010.3
20260903065945 82 168 7.0 13.0 0.00 0.00 0.00 78 1010.4
20260903062944 83 166 2.0 14.0 0.00 0.00 0.00 75 1010.7
20260903055943 83 171 6.0 14.0 0.00 0.00 0.00 71 1010.7
20260903052943 84 159 4.0 15.0 0.00 0.00 0.00 68 1010.3
20260903045942 83 143 8.0 12.0 0.00 0.00 0.00 71 1010.2
20260903042941 83 96 0.0 5.0 0.00 0.00 0.00 72 1010.2
20260903030009 89 158 0.0 5.0 0.00 0.00 0.00 59 1009.4
20260903023008 89 159 0.0 1.0 0.00 0.00 0.00 57 1008.7
20260903020007 91 159 0.0 1.0 0.00 0.00 0.00 55 1008.3
20260903010006 92 159 0.0 0.0 0.00 0.00 0.00 52 1007.8
20260902233003 101 192 0.0 0.0 0.00 0.00 0.00 40 1007.9
20260902230003 102 192 0.0 0.0 0.00 0.00 0.00 36 1007.7
20260902223002 102 192 0.0 0.0 0.00 0.00 0.00 38 1007.8
20260902213000 101 192 0.0 0.0 0.00 0.00 0.00 38 1008.3
20260902205959 102 192 0.0 0.0 0.00 0.00 0.00 37 1008.5
20260902202958 99 192 0.0 0.0 0.00 0.00 0.00 41 1008.9
20260902195958 98 192 0.0 0.0 0.00 0.00 0.00 43 1009.3
20260902192957 100 192 0.0 1.0 0.00 0.00 0.00 41 1009.8
20260902185956 100 192 0.0 4.0 0.00 0.00 0.00 40 1010.3
20260902182955 100 190 0.0 9.0 0.00 0.00 0.00 41 1010.9
20260902175955 97 196 1.0 9.0 0.00 0.00 0.00 45 1011.2
20260902172954 96 216 7.0 8.0 0.00 0.00 0.00 49 1011.9
20260902165953 94 223 0.0 7.0 0.00 0.00 0.00 49 1012.1